{"data":{"norad_id":60945,"epoch":"2026-09-22T22:53:58.820928Z","epoch_age_seconds":79550,"freshness":"FRESH","line1":"1 60945U 24156A   26265.95415302  .00056978  00000+0  69445-3 0  9997","line2":"2 60945  34.9932 228.0074 0003716 234.7956 125.2422 15.59343634115189","mean_motion":15.59343634,"eccentricity":0.0003716,"inclination_deg":34.9932,"raan_deg":228.0074,"arg_perigee_deg":234.7956,"mean_anomaly_deg":125.2422,"bstar":0.00069445,"rev_number":11518,"period_min":92.346546880506,"perigee_km":387.04066554812,"apogee_km":392.07041464392,"semimajor_km":6767.692540096,"source":"CELESTRAK","updated_at":"2026-09-23T09:00:20.756287Z"}}